When you browse on this site, cookies collect data to enhance your experience and personalize the content and advertising you see.
Visit our Privacy Policy to learn more. By continuing to use the site, you agree to this use of cookies and data.
  • In United Kingdom
  • List of Countries
  • For 7 days
  • Water Temperature
  • Satellite Maps
  • Weather Map
  • Weather Widgets
  • user-avatar
    Login

    Hourly Weather Maripasoula

    Today, 17 November, Saturday

    Time Temperature Precipitation Wind Pressure Humidity
    00:00 +24°C° 0 mm 1 mps 745 mmHg 98%
    01:00 +24°C° 0 mm 1 mps 745 mmHg 98%
    02:00 +24°C° 0 mm 1 mps 745 mmHg 99%
    03:00 +24°C° 0 mm 1 mps 745 mmHg 99%
    04:00 +24°C° 0 mm 1 mps 746 mmHg 99%
    05:00 +22°C° 0 mm 0 mps 746 mmHg 99%
    06:00 +25°C° 0 mm 1 mps 746 mmHg 93%
    07:00 +26°C° 0 mm 1 mps 747 mmHg 86%
    08:00 +28°C° 0 mm 1 mps 747 mmHg 80%
    09:00 +30°C° 0 mm 1 mps 747 mmHg 67%
    10:00 +34°C° 0 mm 2 mps 747 mmHg 55%
    11:00 +36°C° 0 mm 2 mps 747 mmHg 42%
    12:00 +37°C° 0 mm 2 mps 746 mmHg 39%
    13:00 +38°C° 0 mm 2 mps 745 mmHg 36%
    14:00 +39°C° 0 mm 2 mps 744 mmHg 33%
    15:00 +36°C° 0 mm 1 mps 744 mmHg 39%
    16:00 +34°C° 0 mm 1 mps 744 mmHg 45%
    17:00 +33°C° 0 mm 1 mps 743 mmHg 51%
    18:00 +31°C° 0 mm 1 mps 744 mmHg 59%
    19:00 +29°C° 0 mm 2 mps 744 mmHg 68%
    20:00 +28°C° 0 mm 2 mps 745 mmHg 77%
    21:00 +27°C° 0 mm 2 mps 745 mmHg 80%
    22:00 +27°C° 0 mm 1 mps 745 mmHg 84%
    23:00 +26°C° 0 mm 1 mps 746 mmHg 87%

    Tomorrow, 18 November, Sunday

    Time Temperature Precipitation Wind Pressure Humidity
    00:00 +25°C° 0 mm 1 mps 745 mmHg 91%
    01:00 +25°C° 0 mm 1 mps 745 mmHg 94%
    02:00 +24°C° 0 mm 1 mps 745 mmHg 97%
    03:00 +24°C° 0 mm 1 mps 745 mmHg 96%
    04:00 +25°C° 0 mm 1 mps 745 mmHg 95%
    05:00 +25°C° 0 mm 1 mps 745 mmHg 94%
    06:00 +25°C° 0 mm 1 mps 746 mmHg 90%
    07:00 +26°C° 0 mm 1 mps 746 mmHg 86%
    08:00 +27°C° 0 mm 1 mps 747 mmHg 81%
    09:00 +30°C° 0 mm 1 mps 747 mmHg 71%
    10:00 +32°C° 0 mm 1 mps 747 mmHg 61%
    11:00 +34°C° 0 mm 1 mps 746 mmHg 51%
    12:00 +34°C° 0.8 mm 2 mps 746 mmHg 60%
    13:00 +32°C° 0.8 mm 2 mps 745 mmHg 69%
    14:00 +31°C° 0.8 mm 2 mps 744 mmHg 78%
    15:00 +30°C° 1.2 mm 2 mps 744 mmHg 82%
    16:00 +29°C° 1.2 mm 1 mps 744 mmHg 86%
    17:00 +28°C° 1.2 mm 1 mps 744 mmHg 91%
    18:00 +27°C° 0.8 mm 1 mps 745 mmHg 92%
    19:00 +26°C° 0.8 mm 1 mps 746 mmHg 94%
    20:00 +25°C° 0.8 mm 1 mps 746 mmHg 95%
    21:00 +25°C° 0 mm 1 mps 746 mmHg 96%
    22:00 +25°C° 0 mm 1 mps 747 mmHg 97%
    23:00 +25°C° 0 mm 1 mps 747 mmHg 98%

    Day after tomorrow, 19 November, Monday

    Time Temperature Precipitation Wind Pressure Humidity
    00:00 +25°C° 0 mm 1 mps 746 mmHg 98%
    01:00 +24°C° 0 mm 1 mps 745 mmHg 99%
    02:00 +24°C° 0 mm 1 mps 745 mmHg 99%
    03:00 +24°C° 0 mm 1 mps 745 mmHg 99%
    04:00 +24°C° 0 mm 1 mps 745 mmHg 99%
    05:00 +24°C° 0 mm 1 mps 745 mmHg 99%
    06:00 +25°C° 0 mm 1 mps 745 mmHg 95%
    07:00 +26°C° 0 mm 1 mps 746 mmHg 91%
    08:00 +27°C° 0 mm 1 mps 746 mmHg 86%
    09:00 +30°C° 0 mm 1 mps 746 mmHg 74%
    10:00 +32°C° 0 mm 2 mps 746 mmHg 62%
    11:00 +36°C° 0 mm 2 mps 746 mmHg 50%
    12:00 +35°C° 0.7 mm 2 mps 745 mmHg 58%
    13:00 +34°C° 0.7 mm 2 mps 744 mmHg 65%
    14:00 +32°C° 0.7 mm 2 mps 743 mmHg 72%
    15:00 +31°C° 0.8 mm 2 mps 743 mmHg 77%
    16:00 +29°C° 0.8 mm 2 mps 743 mmHg 82%
    17:00 +28°C° 0.8 mm 2 mps 743 mmHg 87%
    18:00 +27°C° 0.5 mm 1 mps 744 mmHg 89%
    19:00 +27°C° 0.5 mm 1 mps 745 mmHg 92%
    20:00 +26°C° 0.5 mm 1 mps 745 mmHg 95%
    21:00 +26°C° 0 mm 1 mps 745 mmHg 96%
    22:00 +25°C° 0 mm 1 mps 746 mmHg 97%
    23:00 +25°C° 0 mm 1 mps 746 mmHg 99%

    20 November, Tuesday

    Time Temperature Precipitation Wind Pressure Humidity
    00:00 +25°C° 0 mm 1 mps 745 mmHg 98%
    01:00 +25°C° 0 mm 1 mps 745 mmHg 98%
    02:00 +25°C° 0 mm 1 mps 744 mmHg 97%
    03:00 +25°C° 0 mm 1 mps 745 mmHg 97%
    04:00 +25°C° 0 mm 1 mps 745 mmHg 97%
    05:00 +25°C° 0 mm 1 mps 745 mmHg 96%
    06:00 +26°C° 0 mm 1 mps 746 mmHg 93%
    07:00 +27°C° 0 mm 1 mps 746 mmHg 90%
    08:00 +27°C° 0 mm 1 mps 747 mmHg 87%
    09:00 +30°C° 0 mm 2 mps 747 mmHg 75%
    10:00 +32°C° 0 mm 2 mps 746 mmHg 63%
    11:00 +35°C° 0 mm 2 mps 746 mmHg 51%
    12:00 +34°C° 0.6 mm 2 mps 745 mmHg 59%
    13:00 +32°C° 0.6 mm 2 mps 744 mmHg 68%
    14:00 +31°C° 0.6 mm 2 mps 743 mmHg 77%
    15:00 +30°C° 0.9 mm 2 mps 743 mmHg 81%
    16:00 +29°C° 0.9 mm 1 mps 744 mmHg 86%
    17:00 +28°C° 0.9 mm 1 mps 744 mmHg 90%
    18:00 +27°C° 0.3 mm 1 mps 744 mmHg 92%
    19:00 +26°C° 0.3 mm 1 mps 745 mmHg 94%
    20:00 +26°C° 0.3 mm 1 mps 746 mmHg 96%
    21:00 +25°C° 0 mm 1 mps 746 mmHg 97%
    22:00 +25°C° 0 mm 1 mps 746 mmHg 98%
    23:00 +25°C° 0 mm 1 mps 746 mmHg 98%

    21 November, Wednesday

    Time Temperature Precipitation Wind Pressure Humidity
    00:00 +25°C° 0 mm 1 mps 745 mmHg 99%
    01:00 +25°C° 0 mm 1 mps 745 mmHg 99%
    02:00 +24°C° 0 mm 1 mps 745 mmHg 99%
    03:00 +25°C° 0 mm 1 mps 745 mmHg 99%
    04:00 +25°C° 0 mm 1 mps 745 mmHg 98%
    05:00 +25°C° 0 mm 1 mps 745 mmHg 98%
    06:00 +26°C° 0 mm 1 mps 746 mmHg 96%
    07:00 +26°C° 0 mm 1 mps 746 mmHg 93%
    08:00 +27°C° 0 mm 1 mps 747 mmHg 91%
    09:00 +29°C° 0 mm 1 mps 747 mmHg 80%
    10:00 +31°C° 0 mm 1 mps 747 mmHg 68%
    11:00 +34°C° 0 mm 2 mps 746 mmHg 57%
    12:00 +33°C° 0.1 mm 1 mps 745 mmHg 57%
    13:00 +33°C° 0.1 mm 1 mps 744 mmHg 57%
    14:00 +33°C° 0.1 mm 1 mps 743 mmHg 57%
    15:00 +31°C° 1.4 mm 1 mps 743 mmHg 69%
    16:00 +29°C° 1.4 mm 1 mps 743 mmHg 82%
    17:00 +27°C° 1.4 mm 2 mps 743 mmHg 94%
    18:00 +26°C° 0.9 mm 1 mps 744 mmHg 95%
    19:00 +26°C° 0.9 mm 1 mps 745 mmHg 96%
    20:00 +25°C° 0.9 mm 1 mps 745 mmHg 97%
    21:00 +25°C° 1.2 mm 1 mps 745 mmHg 98%
    22:00 +25°C° 1.2 mm 1 mps 745 mmHg 98%
    23:00 +25°C° 1.2 mm 1 mps 745 mmHg 99%

    22 November, Thursday

    Time Temperature Precipitation Wind Pressure Humidity
    00:00 +25°C° 0.2 mm 1 mps 745 mmHg 99%
    01:00 +25°C° 0.2 mm 1 mps 744 mmHg 99%
    02:00 +25°C° 0.2 mm 1 mps 744 mmHg 99%
    03:00 +25°C° 0 mm 1 mps 744 mmHg 99%
    04:00 +25°C° 0 mm 1 mps 744 mmHg 99%
    05:00 +25°C° 0 mm 1 mps 745 mmHg 99%
    06:00 +25°C° 0 mm 1 mps 745 mmHg 97%
    07:00 +26°C° 0 mm 1 mps 746 mmHg 95%
    08:00 +26°C° 0 mm 1 mps 746 mmHg 94%
    09:00 +28°C° 0 mm 1 mps 746 mmHg 83%
    10:00 +30°C° 0 mm 1 mps 745 mmHg 72%
    11:00 +32°C° 0 mm 1 mps 745 mmHg 60%
    12:00 +33°C° 0 mm 1 mps 744 mmHg 57%
    13:00 +34°C° 0 mm 1 mps 743 mmHg 54%
    14:00 +34°C° 0 mm 1 mps 742 mmHg 51%
    15:00 +33°C° 0.3 mm 1 mps 742 mmHg 59%
    16:00 +31°C° 0.3 mm 1 mps 742 mmHg 67%
    17:00 +29°C° 0.3 mm 1 mps 742 mmHg 75%
    18:00 +28°C° 0.4 mm 1 mps 743 mmHg 82%
    19:00 +27°C° 0.4 mm 1 mps 744 mmHg 90%
    20:00 +25°C° 0.4 mm 1 mps 744 mmHg 97%
    21:00 +25°C° 0.1 mm 1 mps 744 mmHg 98%
    22:00 +25°C° 0.1 mm 1 mps 745 mmHg 98%
    23:00 +25°C° 0.1 mm 1 mps 745 mmHg 99%
    Show more